AAL982 KPVD-KATW

Flight info

Callsign AAL982
Flight time 2h 21m
Altitude 38000
Route PUT CTR HNK CFB RAAKK Q440 IDIOM
Aircraft A319/M-SDE3FGHIRWY/LB1

Departure

Time 2026-05-06 15:54
Airport Rhode Island T. F. Green International Airport (KPVD)

Arrival

Time 2026-05-06 18:16
Airport Appleton International Airport (KATW)
Time Latitude Longitude Altitude Speed Heading
2026-05-06 14:09 41.72438 -71.43567 67 ft 0 kts 310°
2026-05-06 14:31 41.72437 -71.43565 67 ft 2 kts 310°
2026-05-06 14:32 41.72420 -71.43539 57 ft 3 kts 311°
2026-05-06 14:32 41.72405 -71.43519 57 ft 4 kts 326°
2026-05-06 14:32 41.72382 -71.43509 58 ft 4 kts 17°
2026-05-06 14:32 41.72372 -71.43514 59 ft 0 kts 32°
2026-05-06 14:36 41.72373 -71.43514 59 ft 1 kts 32°
2026-05-06 14:36 41.72384 -71.43504 61 ft 3 kts 32°
2026-05-06 14:36 41.72408 -71.43484 59 ft 5 kts 32°
2026-05-06 14:36 41.72443 -71.43454 63 ft 7 kts 32°
2026-05-06 14:37 41.72491 -71.43414 67 ft 9 kts 32°
2026-05-06 14:37 41.72497 -71.43409 65 ft 9 kts 32°
2026-05-06 15:51 41.72539 -71.43374 62 ft 10 kts 32°
2026-05-06 15:52 41.72605 -71.43318 67 ft 12 kts 32°
2026-05-06 15:52 41.72683 -71.43252 65 ft 14 kts 32°
2026-05-06 15:52 41.72770 -71.43179 63 ft 15 kts 32°
2026-05-06 15:52 41.72856 -71.43217 60 ft 15 kts 302°
2026-05-06 15:53 41.72929 -71.43313 63 ft 16 kts
2026-05-06 15:53 41.73040 -71.43258 62 ft 19 kts 22°
2026-05-06 15:53 41.73136 -71.43172 60 ft 14 kts 111°
2026-05-06 15:53 41.73052 -71.43085 64 ft 26 kts 143°
2026-05-06 15:54 41.72689 -71.42721 59 ft 101 kts 142°
2026-05-06 15:54 41.71990 -71.41997 239 ft 137 kts 145°
2026-05-06 15:54 41.71141 -71.41729 838 ft 129 kts 195°
2026-05-06 15:54 41.70553 -71.42569 1529 ft 134 kts 249°
2026-05-06 15:55 41.70813 -71.43837 2325 ft 158 kts 285°
2026-05-06 15:55 41.71261 -71.45223 2718 ft 164 kts 261°
2026-05-06 15:55 41.70795 -71.46595 3027 ft 177 kts 225°
2026-05-06 15:55 41.69916 -71.47909 3492 ft 205 kts 240°
2026-05-06 15:56 41.69769 -71.49936 4113 ft 243 kts 277°
2026-05-06 15:56 41.70724 -71.51954 4960 ft 274 kts 308°
2026-05-06 15:56 41.72250 -71.53576 5949 ft 284 kts 315°
2026-05-06 15:56 41.73862 -71.55139 6908 ft 288 kts 315°
2026-05-06 15:57 41.75500 -71.56731 7859 ft 293 kts 314°
2026-05-06 15:57 41.77161 -71.58351 8774 ft 297 kts 313°
2026-05-06 15:57 41.78724 -71.60132 9699 ft 294 kts 305°
2026-05-06 15:57 41.80167 -71.62106 10331 ft 305 kts 302°
2026-05-06 15:58 41.81615 -71.64272 10656 ft 327 kts 301°
2026-05-06 15:58 41.83165 -71.66635 11094 ft 344 kts 302°
2026-05-06 15:58 41.84784 -71.69051 11845 ft 351 kts 303°
2026-05-06 15:58 41.86447 -71.71475 12658 ft 355 kts 304°
2026-05-06 15:59 41.88143 -71.73903 13486 ft 358 kts 304°
2026-05-06 15:59 41.89865 -71.76344 14240 ft 362 kts 305°
2026-05-06 15:59 41.91604 -71.78805 14952 ft 365 kts 305°
2026-05-06 15:59 41.93359 -71.81295 15650 ft 368 kts 305°
2026-05-06 16:00 41.95040 -71.83887 16339 ft 366 kts 298°
2026-05-06 16:00 41.95933 -71.85789 16787 ft 362 kts 291°
2026-05-06 16:00 41.96949 -71.88867 17483 ft 361 kts 285°
2026-05-06 16:00 41.97906 -71.92001 18184 ft 365 kts 285°
2026-05-06 16:01 41.98874 -71.95162 18838 ft 366 kts 286°
2026-05-06 16:01 41.99851 -71.98337 19490 ft 369 kts 286°
2026-05-06 16:01 42.00835 -72.01528 20125 ft 371 kts 287°
2026-05-06 16:01 42.01828 -72.04744 20754 ft 373 kts 287°
2026-05-06 16:02 42.02825 -72.07979 21363 ft 375 kts 287°
2026-05-06 16:02 42.03824 -72.11229 21959 ft 377 kts 287°
2026-05-06 16:02 42.04828 -72.14503 22536 ft 380 kts 288°
2026-05-06 16:02 42.05839 -72.17801 23105 ft 382 kts 288°
2026-05-06 16:03 42.06854 -72.21110 23623 ft 384 kts 288°
2026-05-06 16:03 42.07878 -72.24443 24073 ft 386 kts 288°
2026-05-06 16:03 42.08907 -72.27792 24532 ft 388 kts 288°
2026-05-06 16:03 42.09939 -72.31163 24987 ft 390 kts 288°
2026-05-06 16:04 42.10972 -72.34549 25435 ft 392 kts 288°
2026-05-06 16:04 42.12009 -72.37965 25871 ft 393 kts 288°
2026-05-06 16:04 42.13042 -72.41385 26299 ft 395 kts 287°
2026-05-06 16:04 42.14081 -72.44824 26737 ft 397 kts 287°
2026-05-06 16:05 42.15127 -72.48277 27150 ft 399 kts 288°
2026-05-06 16:05 42.16178 -72.51742 27579 ft 401 kts 288°
2026-05-06 16:05 42.17220 -72.55179 27978 ft 402 kts 288°
2026-05-06 16:05 42.18280 -72.58689 28372 ft 404 kts 287°
2026-05-06 16:06 42.19341 -72.62207 28787 ft 406 kts 287°
2026-05-06 16:06 42.20405 -72.65739 29188 ft 407 kts 287°
2026-05-06 16:06 42.21469 -72.69280 29573 ft 408 kts 287°
2026-05-06 16:06 42.22536 -72.72834 29936 ft 410 kts 287°
2026-05-06 16:07 42.23605 -72.76407 30272 ft 410 kts 287°
2026-05-06 16:07 42.24671 -72.79977 30731 ft 408 kts 287°
2026-05-06 16:07 42.25727 -72.83510 31209 ft 404 kts 287°
2026-05-06 16:07 42.26775 -72.87018 31704 ft 402 kts 287°
2026-05-06 16:08 42.27815 -72.90511 32193 ft 398 kts 285°
2026-05-06 16:08 42.28559 -72.94063 32663 ft 390 kts 276°
2026-05-06 16:08 42.28807 -72.97677 33187 ft 383 kts 267°
2026-05-06 16:08 42.28603 -73.01231 33668 ft 378 kts 261°
2026-05-06 16:09 42.28287 -73.04745 34113 ft 376 kts 262°
2026-05-06 16:09 42.27983 -73.08190 34552 ft 372 kts 262°
2026-05-06 16:09 42.27678 -73.11690 35010 ft 369 kts 262°
2026-05-06 16:09 42.27384 -73.15067 35448 ft 365 kts 263°
2026-05-06 16:10 42.27087 -73.18457 35886 ft 362 kts 263°
2026-05-06 16:10 42.26793 -73.21821 36306 ft 358 kts 263°
2026-05-06 16:10 42.26500 -73.25147 36729 ft 355 kts 264°
2026-05-06 16:10 42.26210 -73.28439 37144 ft 352 kts 264°
2026-05-06 16:11 42.25920 -73.31707 37565 ft 349 kts 264°
2026-05-06 16:11 42.25629 -73.34948 37815 ft 347 kts 264°
2026-05-06 16:11 42.25049 -73.41401 37844 ft 346 kts 264°
2026-05-06 16:12 42.24469 -73.47844 37839 ft 345 kts 264°
2026-05-06 16:12 42.23884 -73.54278 37833 ft 346 kts 264°
2026-05-06 16:13 42.23296 -73.60721 37830 ft 346 kts 264°
2026-05-06 16:13 42.22702 -73.67163 37836 ft 346 kts 264°
2026-05-06 16:14 42.22104 -73.73602 37830 ft 346 kts 264°
2026-05-06 16:14 42.21503 -73.80043 37828 ft 346 kts 264°
2026-05-06 16:15 42.20898 -73.86482 37822 ft 346 kts 264°
2026-05-06 16:15 42.20293 -73.92918 37824 ft 346 kts 264°
2026-05-06 16:16 42.19690 -73.99324 37825 ft 346 kts 264°
2026-05-06 16:16 42.19079 -74.05769 37837 ft 346 kts 263°
2026-05-06 16:17 42.18464 -74.12209 37833 ft 346 kts 263°
2026-05-06 16:17 42.17836 -74.18653 37832 ft 346 kts 263°
2026-05-06 16:18 42.17204 -74.25083 37835 ft 346 kts 263°
2026-05-06 16:18 42.16579 -74.31513 37833 ft 346 kts 263°
2026-05-06 16:19 42.15947 -74.37950 37843 ft 346 kts 263°
2026-05-06 16:19 42.15313 -74.44385 37812 ft 346 kts 263°
2026-05-06 16:20 42.14673 -74.50821 37813 ft 346 kts 263°
2026-05-06 16:20 42.14031 -74.57212 37818 ft 347 kts 263°
2026-05-06 16:21 42.13381 -74.63645 37823 ft 346 kts 263°
2026-05-06 16:21 42.12727 -74.70073 37819 ft 346 kts 263°
2026-05-06 16:22 42.12074 -74.76505 37821 ft 346 kts 263°
2026-05-06 16:22 42.11419 -74.82934 37820 ft 347 kts 263°
2026-05-06 16:23 42.10762 -74.89353 37817 ft 346 kts 263°
2026-05-06 16:23 42.10092 -74.95767 37818 ft 346 kts 263°
2026-05-06 16:24 42.09428 -75.02150 37815 ft 346 kts 263°
2026-05-06 16:24 42.08761 -75.08568 37835 ft 346 kts 263°
2026-05-06 16:25 42.08086 -75.14976 37831 ft 345 kts 263°
2026-05-06 16:25 42.07412 -75.21358 37823 ft 344 kts 263°
2026-05-06 16:26 42.06729 -75.27724 37800 ft 343 kts 263°
2026-05-06 16:26 42.06587 -75.34070 37793 ft 343 kts 276°
2026-05-06 16:27 42.07342 -75.40416 37798 ft 343 kts 276°
2026-05-06 16:27 42.08098 -75.46761 37797 ft 344 kts 276°
2026-05-06 16:28 42.08845 -75.53123 37786 ft 344 kts 276°
2026-05-06 16:28 42.09589 -75.59488 37785 ft 344 kts 276°
2026-05-06 16:29 42.10329 -75.65864 37779 ft 344 kts 276°
2026-05-06 16:29 42.11064 -75.72238 37780 ft 345 kts 276°
2026-05-06 16:30 42.11674 -75.77545 37784 ft 345 kts 276°
2026-05-06 16:30 42.12528 -75.85017 37786 ft 346 kts 275°
2026-05-06 16:31 42.13252 -75.91424 37779 ft 346 kts 275°
2026-05-06 16:31 42.13974 -75.97801 37783 ft 347 kts 275°
2026-05-06 16:32 42.14699 -76.04227 37785 ft 347 kts 275°
2026-05-06 16:32 42.15416 -76.10654 37796 ft 347 kts 275°
2026-05-06 16:33 42.16116 -76.17092 37819 ft 347 kts 275°
2026-05-06 16:34 42.17063 -76.26780 37816 ft 348 kts 274°
2026-05-06 16:34 42.17689 -76.33252 37810 ft 348 kts 274°
2026-05-06 16:35 42.18325 -76.39731 37822 ft 348 kts 274°
2026-05-06 16:35 42.18949 -76.46179 37824 ft 349 kts 274°
2026-05-06 16:36 42.19577 -76.52671 37856 ft 349 kts 274°
2026-05-06 16:36 42.20200 -76.59170 37845 ft 349 kts 274°
2026-05-06 16:37 42.20822 -76.65679 37848 ft 350 kts 274°
2026-05-06 16:37 42.21441 -76.72182 37843 ft 350 kts 274°
2026-05-06 16:38 42.22053 -76.78700 37842 ft 350 kts 274°
2026-05-06 16:38 42.22661 -76.85220 37851 ft 350 kts 274°
2026-05-06 16:39 42.23264 -76.91694 37896 ft 350 kts 274°
2026-05-06 16:39 42.23867 -76.98213 37885 ft 350 kts 274°
2026-05-06 16:40 42.24463 -77.04732 37879 ft 350 kts 274°
2026-05-06 16:40 42.25070 -77.11249 37881 ft 350 kts 274°
2026-05-06 16:41 42.25665 -77.17763 37875 ft 350 kts 274°
2026-05-06 16:41 42.26247 -77.24291 37916 ft 350 kts 274°
2026-05-06 16:42 42.26824 -77.30764 37900 ft 349 kts 274°
2026-05-06 16:42 42.27403 -77.37270 37891 ft 348 kts 274°
2026-05-06 16:43 42.27977 -77.43766 37885 ft 348 kts 273°
2026-05-06 16:43 42.28544 -77.50260 37880 ft 348 kts 273°
2026-05-06 16:44 42.29114 -77.56764 37874 ft 348 kts 273°
2026-05-06 16:44 42.29674 -77.63222 37909 ft 349 kts 273°
2026-05-06 16:45 42.30237 -77.69724 37901 ft 348 kts 273°
2026-05-06 16:45 42.30789 -77.76228 37893 ft 348 kts 273°
2026-05-06 16:46 42.31342 -77.82728 37884 ft 348 kts 273°
2026-05-06 16:46 42.31893 -77.89231 37879 ft 348 kts 273°
2026-05-06 16:47 42.32434 -77.95728 37889 ft 348 kts 273°
2026-05-06 16:47 42.32971 -78.02226 37904 ft 348 kts 273°
2026-05-06 16:48 42.33501 -78.08688 37898 ft 348 kts 273°
2026-05-06 16:48 42.34039 -78.15192 37880 ft 348 kts 273°
2026-05-06 16:49 42.34488 -78.20635 37885 ft 348 kts 273°
2026-05-06 16:49 42.35006 -78.27098 37883 ft 348 kts 273°
2026-05-06 16:50 42.35532 -78.33646 37872 ft 348 kts 273°
2026-05-06 16:50 42.36045 -78.40113 37878 ft 348 kts 272°
2026-05-06 16:51 42.36558 -78.46623 37876 ft 348 kts 272°
2026-05-06 16:51 42.37073 -78.53133 37869 ft 348 kts 272°
2026-05-06 16:52 42.37586 -78.59648 37873 ft 348 kts 272°
2026-05-06 16:52 42.38090 -78.66164 37871 ft 348 kts 272°
2026-05-06 16:53 42.38586 -78.72669 37882 ft 345 kts 272°
2026-05-06 16:53 42.39075 -78.79090 37870 ft 342 kts 272°
2026-05-06 16:54 42.39559 -78.85496 37877 ft 342 kts 272°
2026-05-06 16:54 42.40190 -78.91883 37878 ft 346 kts 280°
2026-05-06 16:55 42.41696 -78.98062 37883 ft 348 kts 282°
2026-05-06 16:55 42.43224 -79.04294 37891 ft 349 kts 282°
2026-05-06 16:56 42.44747 -79.10529 37914 ft 349 kts 282°
2026-05-06 16:56 42.46266 -79.16780 37910 ft 350 kts 281°
2026-05-06 16:57 42.47787 -79.23044 37903 ft 350 kts 282°
2026-05-06 16:57 42.49312 -79.29310 37902 ft 350 kts 281°
2026-05-06 16:58 42.50835 -79.35587 37905 ft 350 kts 281°
2026-05-06 16:58 42.52351 -79.41864 37905 ft 350 kts 281°
2026-05-06 16:59 42.53858 -79.48157 37945 ft 351 kts 281°
2026-05-06 16:59 42.55368 -79.54474 37906 ft 353 kts 281°
2026-05-06 17:00 42.56871 -79.60780 37894 ft 354 kts 281°
2026-05-06 17:00 42.58389 -79.67142 37895 ft 355 kts 281°
2026-05-06 17:01 42.59902 -79.73522 37898 ft 355 kts 281°
2026-05-06 17:01 42.61202 -79.79956 37925 ft 349 kts 272°
2026-05-06 17:02 42.61526 -79.86523 37908 ft 349 kts 270°
2026-05-06 17:02 42.61817 -79.93112 37901 ft 350 kts 270°
2026-05-06 17:03 42.62104 -79.99715 37901 ft 350 kts 270°
2026-05-06 17:03 42.62397 -80.06327 37900 ft 351 kts 270°
2026-05-06 17:04 42.62681 -80.12947 37899 ft 351 kts 270°
2026-05-06 17:04 42.62954 -80.19536 37912 ft 351 kts 270°
2026-05-06 17:05 42.63228 -80.26171 37904 ft 352 kts 270°
2026-05-06 17:05 42.63500 -80.32821 37898 ft 353 kts 270°
2026-05-06 17:06 42.63771 -80.39471 37897 ft 353 kts 270°
2026-05-06 17:06 42.64041 -80.46134 37898 ft 353 kts 269°
2026-05-06 17:07 42.64305 -80.52800 37902 ft 353 kts 269°
2026-05-06 17:07 42.64539 -80.59471 37910 ft 354 kts 269°
2026-05-06 17:08 42.64760 -80.66130 37916 ft 355 kts 269°
2026-05-06 17:08 42.64980 -80.72839 37902 ft 356 kts 269°
2026-05-06 17:09 42.65210 -80.79547 37900 ft 356 kts 269°
2026-05-06 17:09 42.65429 -80.86256 37904 ft 355 kts 269°
2026-05-06 17:10 42.65647 -80.92954 37938 ft 354 kts 269°
2026-05-06 17:10 42.65860 -80.99641 37932 ft 354 kts 269°
2026-05-06 17:11 42.66070 -81.06341 37935 ft 355 kts 269°
2026-05-06 17:11 42.66273 -81.13039 37933 ft 355 kts 269°
2026-05-06 17:12 42.66469 -81.19734 37932 ft 355 kts 269°
2026-05-06 17:12 42.66669 -81.26393 37935 ft 355 kts 271°
2026-05-06 17:13 42.67415 -81.33066 37939 ft 358 kts 274°
2026-05-06 17:13 42.68200 -81.39766 37940 ft 359 kts 274°
2026-05-06 17:14 42.68975 -81.46478 37941 ft 360 kts 274°
2026-05-06 17:14 42.69744 -81.53203 37946 ft 360 kts 274°
2026-05-06 17:15 42.70511 -81.59932 37941 ft 360 kts 274°
2026-05-06 17:15 42.71274 -81.66617 37964 ft 360 kts 274°
2026-05-06 17:16 42.72035 -81.73363 37964 ft 361 kts 274°
2026-05-06 17:16 42.72793 -81.80146 37964 ft 362 kts 274°
2026-05-06 17:17 42.73551 -81.86937 37969 ft 364 kts 274°
2026-05-06 17:17 42.74310 -81.93758 37961 ft 365 kts 274°
2026-05-06 17:18 42.75064 -82.00599 37969 ft 366 kts 274°
2026-05-06 17:18 42.75818 -82.07451 37968 ft 366 kts 274°
2026-05-06 17:19 42.76574 -82.14316 37975 ft 367 kts 274°
2026-05-06 17:19 42.77319 -82.21183 37978 ft 367 kts 274°
2026-05-06 17:20 42.78052 -82.28030 37980 ft 367 kts 274°
2026-05-06 17:20 42.78785 -82.34905 37982 ft 367 kts 274°
2026-05-06 17:21 42.79517 -82.41791 38007 ft 367 kts 274°
2026-05-06 17:21 42.80246 -82.48684 37991 ft 368 kts 274°
2026-05-06 17:22 42.80980 -82.55591 37974 ft 369 kts 274°
2026-05-06 17:22 42.81864 -82.62499 37968 ft 370 kts 276°
2026-05-06 17:23 42.82848 -82.69356 37962 ft 371 kts 276°
2026-05-06 17:23 42.83826 -82.76294 37957 ft 370 kts 276°
2026-05-06 17:24 42.84380 -82.80371 37971 ft 371 kts 276°
2026-05-06 17:24 42.85172 -82.86260 37960 ft 371 kts 276°
2026-05-06 17:25 42.86090 -82.93189 37956 ft 372 kts 276°
2026-05-06 17:25 42.86708 -82.97805 37956 ft 372 kts 276°
2026-05-06 17:26 42.87632 -83.04747 37962 ft 372 kts 276°
2026-05-06 17:26 42.88550 -83.11693 37972 ft 372 kts 276°
2026-05-06 17:27 42.89469 -83.18642 37983 ft 373 kts 276°
2026-05-06 17:27 42.90378 -83.25617 37975 ft 373 kts 275°
2026-05-06 17:28 42.91771 -83.32431 37980 ft 383 kts 288°
2026-05-06 17:28 42.94022 -83.39025 37975 ft 383 kts 288°
2026-05-06 17:29 42.96260 -83.45637 37991 ft 384 kts 288°
2026-05-06 17:29 42.98495 -83.52268 37997 ft 384 kts 288°
2026-05-06 17:30 43.00723 -83.58899 38013 ft 384 kts 288°
2026-05-06 17:30 43.02953 -83.65546 38004 ft 384 kts 288°
2026-05-06 17:31 43.05168 -83.72148 38004 ft 385 kts 288°
2026-05-06 17:31 43.07403 -83.78823 38003 ft 387 kts 288°
2026-05-06 17:32 43.09640 -83.85517 37996 ft 387 kts 288°
2026-05-06 17:32 43.11873 -83.92241 38021 ft 388 kts 288°
2026-05-06 17:33 43.13639 -83.97572 38021 ft 388 kts 288°
2026-05-06 17:33 43.15869 -84.04319 38016 ft 389 kts 288°
2026-05-06 17:34 43.18103 -84.11067 38013 ft 389 kts 288°
2026-05-06 17:34 43.20333 -84.17819 38011 ft 389 kts 288°
2026-05-06 17:35 43.22183 -84.23441 38014 ft 389 kts 288°
2026-05-06 17:35 43.24770 -84.31309 38026 ft 389 kts 288°
2026-05-06 17:36 43.27711 -84.40314 38019 ft 388 kts 288°
2026-05-06 17:36 43.29914 -84.47076 38067 ft 388 kts 288°
2026-05-06 17:37 43.32122 -84.53867 38001 ft 389 kts 288°
2026-05-06 17:37 43.34323 -84.60671 37994 ft 390 kts 288°
2026-05-06 17:38 43.36237 -84.66590 37991 ft 391 kts 288°
2026-05-06 17:38 43.38447 -84.73422 38007 ft 391 kts 288°
2026-05-06 17:39 43.40648 -84.80260 38006 ft 391 kts 288°
2026-05-06 17:39 43.42837 -84.87100 38005 ft 391 kts 288°
2026-05-06 17:40 43.45015 -84.93909 38008 ft 391 kts 288°
2026-05-06 17:40 43.47226 -85.00745 38007 ft 391 kts 288°
2026-05-06 17:41 43.49468 -85.07586 38018 ft 391 kts 288°
2026-05-06 17:41 43.51696 -85.14422 38014 ft 391 kts 288°
2026-05-06 17:42 43.53910 -85.21275 38009 ft 392 kts 288°
2026-05-06 17:42 43.56128 -85.28145 37992 ft 392 kts 288°
2026-05-06 17:43 43.58345 -85.35034 37992 ft 393 kts 288°
2026-05-06 17:43 43.60541 -85.41880 37527 ft 392 kts 288°
2026-05-06 17:44 43.61648 -85.45326 36921 ft 392 kts 288°
2026-05-06 17:44 43.62747 -85.48760 36325 ft 391 kts 287°
2026-05-06 17:44 43.63841 -85.52185 35729 ft 390 kts 287°
2026-05-06 17:44 43.64933 -85.55604 35138 ft 388 kts 287°
2026-05-06 17:45 43.66021 -85.59013 34542 ft 387 kts 287°
2026-05-06 17:45 43.67102 -85.62409 33937 ft 386 kts 287°
2026-05-06 17:45 43.68178 -85.65793 33194 ft 384 kts 287°
2026-05-06 17:45 43.69251 -85.69175 32404 ft 384 kts 287°
2026-05-06 17:46 43.70316 -85.72558 31592 ft 384 kts 286°
2026-05-06 17:46 43.71389 -85.75934 30779 ft 384 kts 286°
2026-05-06 17:46 43.72475 -85.79308 29922 ft 384 kts 286°
2026-05-06 17:46 43.73428 -85.82727 28952 ft 376 kts 278°
2026-05-06 17:47 43.74080 -85.86190 28229 ft 370 kts 278°
2026-05-06 17:47 43.74738 -85.89597 27482 ft 364 kts 278°
2026-05-06 17:47 43.75391 -85.92961 26784 ft 360 kts 278°
2026-05-06 17:47 43.76033 -85.96288 26127 ft 355 kts 278°
2026-05-06 17:48 43.76660 -85.99563 25491 ft 350 kts 278°
2026-05-06 17:48 43.77266 -86.02755 24851 ft 345 kts 278°
2026-05-06 17:48 43.77871 -86.05951 24216 ft 341 kts 277°
2026-05-06 17:48 43.78466 -86.09108 23586 ft 337 kts 277°
2026-05-06 17:49 43.79049 -86.12234 22843 ft 334 kts 277°
2026-05-06 17:49 43.79625 -86.15341 22121 ft 333 kts 277°
2026-05-06 17:49 43.80199 -86.18438 21458 ft 332 kts 278°
2026-05-06 17:49 43.80771 -86.21530 20788 ft 331 kts 278°
2026-05-06 17:50 43.81342 -86.24628 20406 ft 333 kts 278°
2026-05-06 17:50 43.81918 -86.27746 20094 ft 335 kts 279°
2026-05-06 17:50 43.82502 -86.30884 19788 ft 336 kts 279°
2026-05-06 17:50 43.83086 -86.34013 19498 ft 336 kts 279°
2026-05-06 17:51 43.83670 -86.37151 19218 ft 336 kts 279°
2026-05-06 17:51 43.84252 -86.40287 18915 ft 337 kts 279°
2026-05-06 17:51 43.84834 -86.43436 18627 ft 337 kts 279°
2026-05-06 17:51 43.85405 -86.46537 18343 ft 337 kts 280°
2026-05-06 17:52 43.85983 -86.49685 18020 ft 337 kts 280°
2026-05-06 17:52 43.86562 -86.52832 17681 ft 337 kts 280°
2026-05-06 17:52 43.87141 -86.55975 17364 ft 336 kts 280°
2026-05-06 17:52 43.87718 -86.59111 17043 ft 337 kts 281°
2026-05-06 17:53 43.88296 -86.62263 16722 ft 337 kts 281°
2026-05-06 17:53 43.88872 -86.65410 16406 ft 336 kts 281°
2026-05-06 17:53 43.89442 -86.68548 16091 ft 336 kts 281°
2026-05-06 17:53 43.90012 -86.71696 15784 ft 335 kts 281°
2026-05-06 17:54 43.90577 -86.74828 15473 ft 334 kts 281°
2026-05-06 17:54 43.91143 -86.77948 15174 ft 334 kts 281°
2026-05-06 17:54 43.91707 -86.81069 14875 ft 333 kts 281°
2026-05-06 17:54 43.92267 -86.84182 14578 ft 332 kts 282°
2026-05-06 17:55 43.92828 -86.87296 14283 ft 332 kts 282°
2026-05-06 17:55 43.93389 -86.90398 13990 ft 331 kts 282°
2026-05-06 17:55 43.93948 -86.93496 13677 ft 331 kts 282°
2026-05-06 17:55 43.94498 -86.96549 13359 ft 330 kts 282°
2026-05-06 17:56 43.95052 -86.99637 13040 ft 329 kts 282°
2026-05-06 17:56 43.95600 -87.02716 12716 ft 328 kts 282°
2026-05-06 17:56 43.96146 -87.05789 12397 ft 327 kts 282°
2026-05-06 17:56 43.96688 -87.08845 12078 ft 326 kts 282°
2026-05-06 17:57 43.97230 -87.11890 11757 ft 324 kts 282°
2026-05-06 17:57 43.97771 -87.14925 11438 ft 323 kts 282°
2026-05-06 17:57 43.98278 -87.17774 11158 ft 322 kts 282°
2026-05-06 17:57 43.98811 -87.20792 10853 ft 321 kts 282°
2026-05-06 17:58 43.99341 -87.23803 10551 ft 320 kts 282°
2026-05-06 17:58 43.99871 -87.26803 10262 ft 319 kts 283°
2026-05-06 17:58 44.00397 -87.29790 9966 ft 315 kts 283°
2026-05-06 17:58 44.00910 -87.32697 9634 ft 304 kts 283°
2026-05-06 17:59 44.01405 -87.35491 9303 ft 293 kts 283°
2026-05-06 17:59 44.01878 -87.38168 8974 ft 285 kts 283°
2026-05-06 17:59 44.02339 -87.40798 8653 ft 277 kts 283°
2026-05-06 17:59 44.02789 -87.43364 8348 ft 269 kts 283°
2026-05-06 18:00 44.03226 -87.45861 8011 ft 263 kts 282°
2026-05-06 18:00 44.03650 -87.48305 7697 ft 257 kts 283°
2026-05-06 18:00 44.04064 -87.50698 7383 ft 253 kts 283°
2026-05-06 18:00 44.04475 -87.53071 7074 ft 252 kts 283°
2026-05-06 18:01 44.04885 -87.55429 6771 ft 251 kts 283°
2026-05-06 18:01 44.05296 -87.57789 6449 ft 250 kts 283°
2026-05-06 18:01 44.05704 -87.60138 6128 ft 250 kts 283°
2026-05-06 18:01 44.06109 -87.62482 5806 ft 249 kts 283°
2026-05-06 18:02 44.06512 -87.64815 5488 ft 248 kts 283°
2026-05-06 18:02 44.06913 -87.67143 5172 ft 247 kts 283°
2026-05-06 18:02 44.07311 -87.69460 4859 ft 246 kts 283°
2026-05-06 18:02 44.07706 -87.71769 4533 ft 246 kts 283°
2026-05-06 18:03 44.08103 -87.74080 4210 ft 245 kts 283°
2026-05-06 18:03 44.08501 -87.76386 3892 ft 244 kts 283°
2026-05-06 18:03 44.08892 -87.78649 3573 ft 235 kts 283°
2026-05-06 18:03 44.09261 -87.80798 3260 ft 222 kts 283°
2026-05-06 18:04 44.09611 -87.82848 2944 ft 213 kts 283°
2026-05-06 18:04 44.09947 -87.84814 2662 ft 203 kts 283°
2026-05-06 18:04 44.10259 -87.86646 2612 ft 188 kts 282°
2026-05-06 18:04 44.10555 -87.88392 2622 ft 183 kts 282°
2026-05-06 18:05 44.10844 -87.90100 2620 ft 181 kts 282°
2026-05-06 18:05 44.10858 -87.90184 2618 ft 180 kts 282°
2026-05-06 18:05 44.11163 -87.91907 2610 ft 176 kts 283°
2026-05-06 18:06 44.11436 -87.93515 2620 ft 171 kts 283°
2026-05-06 18:06 44.11703 -87.95109 2614 ft 168 kts 282°
2026-05-06 18:06 44.11968 -87.96690 2621 ft 168 kts 282°
2026-05-06 18:06 44.12232 -87.98270 2618 ft 167 kts 282°
2026-05-06 18:07 44.12497 -87.99848 2621 ft 167 kts 282°
2026-05-06 18:07 44.12761 -88.01424 2621 ft 168 kts 282°
2026-05-06 18:07 44.13028 -88.03014 2619 ft 168 kts 282°
2026-05-06 18:07 44.13295 -88.04602 2624 ft 170 kts 282°
2026-05-06 18:08 44.13564 -88.06200 2628 ft 169 kts 282°
2026-05-06 18:08 44.13832 -88.07790 2621 ft 168 kts 283°
2026-05-06 18:08 44.14058 -88.09116 2621 ft 169 kts 283°
2026-05-06 18:08 44.14315 -88.10644 2615 ft 170 kts 282°
2026-05-06 18:09 44.14585 -88.12244 2622 ft 169 kts 283°
2026-05-06 18:09 44.14851 -88.13823 2610 ft 166 kts 282°
2026-05-06 18:09 44.15112 -88.15366 2610 ft 166 kts 282°
2026-05-06 18:09 44.15375 -88.16938 2619 ft 167 kts 282°
2026-05-06 18:10 44.15637 -88.18507 2617 ft 166 kts 282°
2026-05-06 18:10 44.15898 -88.20081 2618 ft 168 kts 282°
2026-05-06 18:10 44.16162 -88.21664 2619 ft 168 kts 283°
2026-05-06 18:10 44.16426 -88.23249 2617 ft 168 kts 283°
2026-05-06 18:11 44.16691 -88.24839 2619 ft 170 kts 283°
2026-05-06 18:11 44.16962 -88.26437 2621 ft 169 kts 283°
2026-05-06 18:11 44.17357 -88.27989 2619 ft 170 kts 290°
2026-05-06 18:11 44.17842 -88.29511 2615 ft 172 kts 293°
2026-05-06 18:12 44.18357 -88.31016 2612 ft 171 kts 294°
2026-05-06 18:12 44.18881 -88.32511 2607 ft 172 kts 294°
2026-05-06 18:12 44.19412 -88.34011 2614 ft 172 kts 294°
2026-05-06 18:12 44.19942 -88.35507 2610 ft 172 kts 294°
2026-05-06 18:13 44.20473 -88.37006 2619 ft 172 kts 294°
2026-05-06 18:13 44.20995 -88.38476 2607 ft 171 kts 294°
2026-05-06 18:13 44.21527 -88.39979 2564 ft 173 kts 294°
2026-05-06 18:13 44.22050 -88.41455 2398 ft 164 kts 294°
2026-05-06 18:14 44.22527 -88.42800 2208 ft 149 kts 294°
2026-05-06 18:14 44.22979 -88.44078 2012 ft 145 kts 294°
2026-05-06 18:14 44.23425 -88.45342 1794 ft 146 kts 294°
2026-05-06 18:14 44.23878 -88.46624 1583 ft 148 kts 296°
2026-05-06 18:15 44.24332 -88.47910 1363 ft 146 kts 296°
2026-05-06 18:15 44.24782 -88.49184 1162 ft 150 kts 296°
2026-05-06 18:15 44.25246 -88.50498 960 ft 150 kts 296°
2026-05-06 18:15 44.25683 -88.51736 898 ft 118 kts 296°
2026-05-06 18:16 44.25907 -88.52383 903 ft 30 kts 296°
2026-05-06 18:16 44.25974 -88.52466 903 ft 10 kts 359°
2026-05-06 18:16 44.26032 -88.52421 905 ft 10 kts 59°
2026-05-06 18:16 44.26012 -88.52323 905 ft 11 kts 116°
2026-05-06 18:17 44.25971 -88.52215 903 ft 14 kts 118°
2026-05-06 18:17 44.25918 -88.52074 900 ft 18 kts 116°
2026-05-06 18:17 44.25862 -88.51912 901 ft 20 kts 115°
2026-05-06 18:17 44.25843 -88.51715 896 ft 23 kts 72°
2026-05-06 18:18 44.25893 -88.51485 889 ft 20 kts 75°
2026-05-06 18:18 44.25911 -88.51297 889 ft 16 kts 90°
2026-05-06 18:18 44.25944 -88.51209 888 ft 10 kts 348°
2026-05-06 18:18 44.25966 -88.51208 888 ft 0 kts
2026-05-06 18:19 44.25967 -88.51208 888 ft 0 kts